If you wish to contribute or participate in the discussions about articles you are invited to join SKYbrary as a registered user

 Actions

Alesund/Vigra

From SKYbrary Wiki

ENAL
Airport
ICAO: ENAL
Summary
Name Alesund/Vigra
Region Europe
Territory Norway NO.gif
Location Alesund/Vigra
Serving
Coordinates 62° 33' 38.50" N, 6° 6' 40.65" E
Runways
Designator Length Width Surface ROPS
7/25 2314 m7,591.864 ft
45 m147.638 ft
ASP yes/yes


METAR
Observation ENAL 132120Z 14010KT CAVOK M01/M06 Q1030
Station Alesund / Vigra
Date/Time 13 December 2018 21:20:00
Wind direction 140°
Wind speed 10 kts
Lowest cloud amount clouds and visibility OK
Temperature
Dew point
Humidity 68%
QNH 1030 hPa
Weather condition n/a


Alesund/Vigra Airport

ICAO: ENAL IATA: AES

Description

Airport serving Alesund, Norway.

Climatology

Temperate Marine climate/Oceanic climate (Köppen climate classification Cfb). Moderately cool summer and comparatively warm winter with a temperature range of only 14°C57.2 °F
287.15 K
516.87 °R
. Prevailing south-westerly winds from the Atlantic Ocean.

Maps

Terrain

Loading map...

Airport Layout

Loading map...


Accidents & Serious Incidents at or in vicinity of ENAL

None on SKYbrary